When you browse on this site, cookies collect data to enhance your experience and personalize the content and advertising you see.
Visit our Privacy Policy to learn more. By continuing to use the site, you agree to this use of cookies and data.
  • en Suisse
  • Liste des pays
  • À 7 jours
  • Température de l'eau
  • Carte météo
  • Widgets météo
  • user-avatar
    Se connecter

    Météo par heure à Velikaya Novoselka

    Ce jour, 24 Février, Lundi

    Heure Température Précipitation Vent Pression Humidité
    00:00 +1°C° 0.1 mm 8 m/s 748 mmHg 88%
    01:00 +2°C° 0.1 mm 7 m/s 747 mmHg 90%
    02:00 +2°C° 0 mm 6 m/s 746 mmHg 92%
    03:00 +2°C° 0.4 mm 6 m/s 745 mmHg 94%
    04:00 +1°C° 0.4 mm 6 m/s 744 mmHg 95%
    05:00 +1°C° 0.4 mm 6 m/s 743 mmHg 96%
    06:00 0°C° 0.3 mm 7 m/s 743 mmHg 96%
    07:00 0°C° 0.3 mm 7 m/s 742 mmHg 96%
    08:00 0°C° 0 mm 7 m/s 741 mmHg 95%
    09:00 0°C° 0.3 mm 8 m/s 740 mmHg 95%
    10:00 0°C° 0.3 mm 8 m/s 738 mmHg 94%
    11:00 +1°C° 0.3 mm 9 m/s 737 mmHg 94%
    12:00 +1°C° 1 mm 8 m/s 736 mmHg 94%
    13:00 +1°C° 1 mm 8 m/s 735 mmHg 94%
    14:00 +2°C° 1 mm 7 m/s 733 mmHg 94%
    15:00 +3°C° 0.7 mm 6 m/s 732 mmHg 94%
    16:00 +3°C° 0.7 mm 5 m/s 732 mmHg 94%
    17:00 +3°C° 0.7 mm 5 m/s 731 mmHg 94%
    18:00 +3°C° 0.7 mm 4 m/s 731 mmHg 94%
    19:00 +3°C° 0.7 mm 4 m/s 732 mmHg 93%
    20:00 +1°C° 0.7 mm 4 m/s 732 mmHg 92%
    21:00 -1°C° 0.6 mm 7 m/s 733 mmHg 94%
    22:00 -2°C° 0.6 mm 10 m/s 734 mmHg 95%
    23:00 -4°C° 0.6 mm 13 m/s 735 mmHg 96%

    Demain, 25 Février, Mardi

    Heure Température Précipitation Vent Pression Humidité
    00:00 -3°C° 1 mm 12 m/s 736 mmHg 96%
    01:00 -3°C° 1 mm 12 m/s 737 mmHg 95%
    02:00 -3°C° 1 mm 12 m/s 739 mmHg 95%
    03:00 -3°C° 0.2 mm 12 m/s 740 mmHg 90%
    04:00 -3°C° 0.2 mm 11 m/s 742 mmHg 85%
    05:00 -3°C° 0.2 mm 10 m/s 743 mmHg 80%
    06:00 -3°C° 0 mm 10 m/s 744 mmHg 80%
    07:00 -3°C° 0 mm 9 m/s 746 mmHg 80%
    08:00 -2°C° 0 mm 8 m/s 747 mmHg 80%
    09:00 -1°C° 0 mm 8 m/s 747 mmHg 75%
    10:00 -1°C° 0 mm 7 m/s 748 mmHg 70%
    11:00 0°C° 0 mm 7 m/s 749 mmHg 65%
    12:00 +2°C° 0 mm 6 m/s 749 mmHg 62%
    13:00 +3°C° 0 mm 6 m/s 749 mmHg 59%
    14:00 +3°C° 0 mm 6 m/s 749 mmHg 56%
    15:00 +2°C° 0 mm 5 m/s 749 mmHg 58%
    16:00 +3°C° 0 mm 4 m/s 749 mmHg 61%
    17:00 +2°C° 0 mm 3 m/s 749 mmHg 64%
    18:00 +1°C° 0 mm 3 m/s 749 mmHg 66%
    19:00 +1°C° 0 mm 3 m/s 749 mmHg 69%
    20:00 +1°C° 0 mm 3 m/s 749 mmHg 72%
    21:00 0°C° 0 mm 4 m/s 749 mmHg 75%
    22:00 0°C° 0 mm 4 m/s 749 mmHg 77%
    23:00 0°C° 0 mm 4 m/s 749 mmHg 80%

    Après-demain, 26 Février, Mercredi

    Heure Température Précipitation Vent Pression Humidité
    00:00 0°C° 0 mm 4 m/s 748 mmHg 82%
    01:00 0°C° 0 mm 5 m/s 748 mmHg 85%
    02:00 0°C° 0 mm 5 m/s 748 mmHg 87%
    03:00 0°C° 0 mm 5 m/s 747 mmHg 86%
    04:00 0°C° 0 mm 5 m/s 747 mmHg 85%
    05:00 0°C° 0 mm 5 m/s 746 mmHg 84%
    06:00 -1°C° 0 mm 6 m/s 746 mmHg 83%
    07:00 +1°C° 0 mm 6 m/s 746 mmHg 81%
    08:00 +2°C° 0 mm 7 m/s 746 mmHg 79%
    09:00 +2°C° 0 mm 8 m/s 746 mmHg 75%
    10:00 +4°C° 0 mm 8 m/s 745 mmHg 71%
    11:00 +5°C° 0 mm 9 m/s 745 mmHg 66%
    12:00 +6°C° 0 mm 9 m/s 745 mmHg 64%
    13:00 +6°C° 0 mm 9 m/s 744 mmHg 62%
    14:00 +7°C° 0 mm 10 m/s 744 mmHg 60%
    15:00 +6°C° 0 mm 9 m/s 743 mmHg 63%
    16:00 +5°C° 0 mm 9 m/s 743 mmHg 65%
    17:00 +5°C° 0 mm 8 m/s 742 mmHg 68%
    18:00 +4°C° 0 mm 8 m/s 743 mmHg 71%
    19:00 +4°C° 0 mm 8 m/s 743 mmHg 74%
    20:00 +2°C° 0 mm 8 m/s 743 mmHg 77%
    21:00 +2°C° 0 mm 8 m/s 743 mmHg 77%
    22:00 +3°C° 0 mm 7 m/s 742 mmHg 78%
    23:00 +3°C° 0 mm 7 m/s 742 mmHg 79%

    27 Février, Jeudi

    Heure Température Précipitation Vent Pression Humidité
    00:00 +3°C° 0 mm 7 m/s 742 mmHg 80%
    01:00 +3°C° 0 mm 6 m/s 742 mmHg 82%
    02:00 +3°C° 0 mm 6 m/s 741 mmHg 84%
    03:00 +3°C° 0 mm 6 m/s 741 mmHg 82%
    04:00 +4°C° 0 mm 6 m/s 741 mmHg 81%
    05:00 +5°C° 0 mm 6 m/s 740 mmHg 79%
    06:00 +5°C° 0 mm 6 m/s 740 mmHg 78%
    07:00 +5°C° 0 mm 6 m/s 740 mmHg 77%
    08:00 +6°C° 0 mm 7 m/s 740 mmHg 76%
    09:00 +8°C° 0 mm 7 m/s 740 mmHg 74%
    10:00 +9°C° 0 mm 7 m/s 740 mmHg 72%
    11:00 +11°C° 0 mm 8 m/s 740 mmHg 70%
    12:00 +11°C° 0 mm 8 m/s 740 mmHg 70%
    13:00 +11°C° 0 mm 8 m/s 740 mmHg 71%
    14:00 +12°C° 0 mm 8 m/s 740 mmHg 71%
    15:00 +11°C° 0 mm 8 m/s 740 mmHg 73%
    16:00 +11°C° 0 mm 7 m/s 740 mmHg 74%
    17:00 +11°C° 0 mm 7 m/s 740 mmHg 76%
    18:00 +10°C° 0 mm 7 m/s 740 mmHg 76%
    19:00 +10°C° 0 mm 7 m/s 740 mmHg 76%
    20:00 +10°C° 0 mm 7 m/s 739 mmHg 76%
    21:00 +9°C° 0.1 mm 7 m/s 739 mmHg 75%
    22:00 +9°C° 0.1 mm 8 m/s 739 mmHg 74%
    23:00 +7°C° 0.1 mm 8 m/s 738 mmHg 72%

    28 Février, Vendredi

    Heure Température Précipitation Vent Pression Humidité
    00:00 +8°C° 0.5 mm 7 m/s 738 mmHg 76%
    01:00 +6°C° 0.5 mm 7 m/s 737 mmHg 81%
    02:00 +7°C° 0.5 mm 6 m/s 736 mmHg 85%
    03:00 +6°C° 0.9 mm 7 m/s 736 mmHg 86%
    04:00 +6°C° 0.9 mm 7 m/s 735 mmHg 87%
    05:00 +6°C° 0.9 mm 8 m/s 735 mmHg 88%
    06:00 +5°C° 0.1 mm 9 m/s 735 mmHg 82%
    07:00 +3°C° 0.1 mm 10 m/s 735 mmHg 77%
    08:00 +3°C° 0.1 mm 11 m/s 735 mmHg 71%
    09:00 +2°C° 0 mm 12 m/s 736 mmHg 76%
    10:00 0°C° 0 mm 13 m/s 737 mmHg 81%
    11:00 -1°C° 0 mm 14 m/s 738 mmHg 87%
    12:00 -1°C° 0.1 mm 13 m/s 740 mmHg 79%
    13:00 -1°C° 0.1 mm 12 m/s 741 mmHg 71%
    14:00 +1°C° 0.1 mm 10 m/s 743 mmHg 63%
    15:00 0°C° 0 mm 9 m/s 744 mmHg 60%
    16:00 0°C° 0 mm 7 m/s 745 mmHg 57%
    17:00 +1°C° 0 mm 6 m/s 746 mmHg 54%
    18:00 0°C° 0 mm 5 m/s 746 mmHg 58%
    19:00 0°C° 0 mm 4 m/s 747 mmHg 62%
    20:00 -1°C° 0 mm 4 m/s 748 mmHg 66%
    21:00 -1°C° 0 mm 4 m/s 748 mmHg 68%
    22:00 -1°C° 0 mm 4 m/s 748 mmHg 70%
    23:00 -1°C° 0 mm 4 m/s 748 mmHg 71%

    29 Février, Samedi

    Heure Température Précipitation Vent Pression Humidité
    00:00 -1°C° 0 mm 4 m/s 748 mmHg 73%
    01:00 -1°C° 0 mm 4 m/s 748 mmHg 75%
    02:00 -1°C° 0 mm 4 m/s 748 mmHg 77%
    03:00 0°C° 0 mm 3 m/s 748 mmHg 79%
    04:00 -1°C° 0 mm 3 m/s 748 mmHg 81%
    05:00 -1°C° 0 mm 2 m/s 747 mmHg 83%
    06:00 0°C° 0 mm 3 m/s 747 mmHg 81%
    07:00 0°C° 0 mm 4 m/s 748 mmHg 79%
    08:00 0°C° 0 mm 5 m/s 748 mmHg 78%
    09:00 0°C° 0.8 mm 5 m/s 748 mmHg 82%
    10:00 -1°C° 0.8 mm 6 m/s 747 mmHg 87%
    11:00 -1°C° 0.8 mm 6 m/s 747 mmHg 91%
    12:00 0°C° 0.2 mm 5 m/s 747 mmHg 84%
    13:00 0°C° 0.2 mm 5 m/s 747 mmHg 76%
    14:00 0°C° 0.2 mm 4 m/s 747 mmHg 69%
    15:00 0°C° 0 mm 4 m/s 748 mmHg 69%
    16:00 -1°C° 0 mm 4 m/s 748 mmHg 69%
    17:00 0°C° 0 mm 3 m/s 749 mmHg 69%
    18:00 -1°C° 0 mm 3 m/s 749 mmHg 71%
    19:00 -1°C° 0 mm 3 m/s 750 mmHg 72%
    20:00 -2°C° 0 mm 3 m/s 750 mmHg 74%
    21:00 -2°C° 0 mm 3 m/s 751 mmHg 73%
    22:00 -2°C° 0 mm 3 m/s 751 mmHg 73%
    23:00 -2°C° 0 mm 3 m/s 751 mmHg 73%
    Voir plus